Location: Lango�lan
(48.1202°N, 3.2340°W)
Time: 13:50:08
(UTC+00:00)

Cosmos 1606 Rocket - Pass Details

Date: 23 October 2019
Orbit: 603 x 632 km, 82.5° (Epoch: 20 November)

Event Time Altitude Azimuth Distance (km) Brightness Sun altitude
Rises 05:06:49 0° 341° (NNW) 2,868 6.8 -16.8°
Reaches altitude 10° 05:09:13 10° 331° (NNW) 1,960 5.9 -16.4°
Maximum altitude 05:13:00 30° 270° (W) 1,089 4.2 -15.8°
Drops below altitude 10° 05:16:46 10° 209° (SSW) 1,951 5.8 -15.1°
Sets 05:19:10 0° 199° (SSW) 2,853 6.8 -14.7°
